Regional Weather Roundup
Issued by NWS

Home | Current Version | Previous Version | Graphics & Text | Print | Product List | Glossary On
Versions: 1 2 3 4 5 6 7 8 9 10 11 12 13 14 15 16 17 18 19 20 21 22 23 24 25 26 27 28 29 30 31 32 33 34 35 36 37 38 39 40 41 42 43 44 45 46 47 48 49 50
000
ASUS43 KFSD 231010
RWRSD

WEATHER ROUNDUP FOR SOUTH DAKOTA
NATIONAL WEATHER SERVICE SIOUX FALLS SD
500 AM CDT SAT SEP 23 2017

NOTE: "FAIR" INDICATES FEW OR NO CLOUDS BELOW 12,000 FEET WITH NO
SIGNIFICANT WEATHER AND/OR OBSTRUCTIONS TO VISIBILITY.


SDZ001>005-009-010-012>017-231100-
NORTHWEST AND NORTH CENTRAL SOUTH DAKOTA

CITY           SKY/WX    TMP DP  RH WIND       PRES   REMARKS
BUFFALO          N/A     42  40  92 CALM      30.02R
FAITH            N/A     45  45 100 NW13      30.03F
MOBRIDGE       CLOUDY    51  46  83 N9        30.00R
$$

SDZ012>016-024>037-041>051-057-063-072>074-231100-
SOUTHWEST AND SOUTH CENTRAL SOUTH DAKOTA

CITY           SKY/WX    TMP DP  RH WIND       PRES   REMARKS
RAPID CTY ARPT NOT AVBL
PIERRE         CLOUDY    49  47  93 N8        29.95S
CUSTER         FOG       39  38  96 E7        30.03S VSB 3/4
ELLSWORTH AFB  CLOUDY    44  44 100 NW12      30.04
PHILIP         CLOUDY    49  43  80 NW9       30.03R
PINE RIDGE     CLOUDY    46  42  86 N9        30.01F
SPEARFISH      CLOUDY    41  41 100 N7        30.06S
WINNER         CLOUDY    51  49  92 NW8       29.98S
$$

SDZ004>011-016>023-039-040-231100-
NORTHEAST SOUTH DAKOTA

CITY           SKY/WX    TMP DP  RH WIND       PRES   REMARKS
ABERDEEN       LGT RAIN  52  51  97 NE8       29.97F
WATERTOWN      CLOUDY    55  55 100 NW13      29.95R
BROOKINGS      CLOUDY    59  57  93 NW15G22   29.94R
SISSETON         N/A     56  54  93 NW15      29.95R
$$

SDZ017-020-022-023-036>040-048>070-231100-
SOUTHEAST SOUTH DAKOTA

CITY           SKY/WX    TMP DP  RH WIND       PRES   REMARKS
SIOUX FALLS    MOCLDY    61  59  93 NW13G23   29.90R
HURON          CLOUDY    54  52  93 N12       29.95R
CHAMBERLAIN    LGT RAIN  53  53 100 N5        29.98R
MITCHELL       CLOUDY    55  52  89 N10       29.95R
YANKTON        CLOUDY    58  54  86 NW16G24   29.93R
$$

ABBREVIATIONS USED IN REMARKS
   TC - TEMPERATURE IN CELSIUS
  WCI - WIND CHILL INDEX
   HX - HEAT INDEX
  VSB - VISIBILITY





USA.gov is the U.S. government's official web portal to all federal, state and local government web resources and services.